Regional Weather Roundup
Issued by NWS Newport/Morehead, NC

Current Version | Previous Version | Graphics & Text | Print | Product List | Glossary Off
Versions: 1 2 3 4 5 6 7 8 9 10 11 12 13 14 15 16 17 18 19 20 21 22 23 24 25 26 27 28 29 30 31 32 33 34 35 36 37 38 39 40 41 42 43 44 45 46 47 48 49 50

000
ASUS42 KMHX 112325
RWRMHX
WEATHER ROUNDUP FOR EASTERN NORTH CAROLINA
NATIONAL WEATHER SERVICE NEWPORT/MOREHEAD CITY NC
600 PM EST THU FEB 11 2016

NOTE: "FAIR" INDICATES FEW OR NO CLOUDS BELOW 12,000 FEET
WITH NO SIGNIFICANT WEATHER AND/OR OBSTRUCTIONS TO VISIBILITY

NCZ015>017-031-032-045>047-102-103-120000-
NORTH COAST

CITY           SKY/WX    TMP DP  RH WIND       PRES   REMARKS
EDENTON        CLEAR     35   9  33 NW3       30.22R
ELIZABETH CITY CLEAR     32  10  40 W7        30.21R
KITTY HAWK     CLEAR     33   9  35 W8        30.19R
MANTEO         CLEAR     34  10  37 NW6       30.21R

$$

NCZ045>047-081-094-103-104-120000-
CENTRAL COAST

CITY           SKY/WX    TMP DP  RH WIND       PRES   REMARKS
FRISCO         CLEAR     36  13  38 W9        30.20R
SWANQUARTER      N/A     34 N/A N/A NW3       30.18S

$$

NCZ095-097-098-100-101-120000-
SOUTHERN COAST

CITY           SKY/WX    TMP DP  RH WIND       PRES   REMARKS
BEAUFORT       CLEAR     37  16  42 NW7       30.21R
CEDAR ISLAND     N/A     37 N/A N/A W5G13     30.27R
JACKSONVILLE   CLEAR     40  14  34 NW5       30.21R
PINEY ISLAND   CLEAR    N/A N/A N/A W9        30.21R
WILMINGTON     CLEAR     42  18  37 NW6       30.21R


$$

NCZ011>013-027>030-043-044-078>080-089-090>093-098-120000-
COASTAL PLAIN

CITY           SKY/WX    TMP DP  RH WIND       PRES   REMARKS
AHOSKIE        CLEAR     32   4  29 CALM      30.23R
CLINTON        CLEAR     41  19  40 CALM      30.21R
ELIZABETHTOWN  CLEAR     41  21  45 CALM      30.21R
GOLDSBORO      CLEAR     39   7  26 NW5       30.19R
GREENVILLE     CLEAR     36   9  32 CALM      30.23R
HAVELOCK       CLEAR     38  12  34 NW6       30.22R
KENANSVILLE    CLEAR     35  20  54 CALM      30.23R
KINSTON        CLEAR     37  10  32 NW5       30.22R
NEW BERN       CLEAR     37  13  37 W5        30.22R
RICHLANDS      CLEAR     37  14  38 CALM      30.23R
ROCKY MOUNT    CLEAR     36   7  29 W3        30.21R
WASHINGTON     CLEAR     35   8  32 CALM      30.22R
WHITEVILLE     CLEAR     42  20  41 CALM      30.20R

$$

AMZ130-135-150-152-154-156-158-170-250-252-270-ANZ085-086-088-633-658-670-120000-
MARINE OBSERVATIONS

STATION/POSITION TIME  TEMP    WIND        PRES    WAVE   SWELL
                       AIR SEA DIR/SP/G            HT/PER HT/PER
                 (UTC) (F)     (DEG/KT/KT) (MB)    (FT/S) (FT/S)
CHESAPEAKE LIGHT 2300   33     300/ 17/ 20 1023.2
64 E VA BEACH    2250   34 48  310/ 19/ 25 1021.5    6/ 6
DUCK             2300   35     300/ 10/ 13 1022.2
2 E DUCK         2311      44                N/A     2/11
OREGON INLET     2300   34 41  290/  8/ 12 1022.9
13E OREGON INLT  2300      47                N/A     4/ 7   2/11
HATTERAS CG      2300   38 45  280/ 14/ 16 1022.4
DIAMOND BUOY     2250   40 60  300/ 16/ 19 1022.8    5/ 4   2/ 7
CAPE LOOKOUT     NOT AVBL
BEAUFORT LAB     2300   39 44  330/  4/  8 1021.9
30 SE NEW RVR IN 2308   44 58              1022.8
30 SE NEW RVR IN 2225      58                N/A     4/ 8
27 SE WRIGHTSVLE 2308   44 61  300/  4/ 10 1021.4
5 SE WRIGHTSVLE  2208   46 50  320/  6/ 12 1022.3
225 S CAPE HAT   2250   54 68  300/ 17/ 23   N/A     9/ 8   3/12
41 SE CHARLESTON 2250   50 64  220/  6/  8 1022.7    3/ 6   3/ 6

$$



USA.gov is the U.S. government's official web portal to all federal, state and local government web resources and services.